Regional Weather Roundup
Issued by NWS

Home | Current Version | Previous Version | Text Only | Print | Product List | Glossary On
Versions: 1 2 3 4 5 6 7 8 9 10 11 12 13 14 15 16 17 18 19 20 21 22 23 24 25 26 27 28 29 30 31 32 33 34 35 36 37 38 39 40 41 42 43 44 45 46 47 48 49 50
000
ASUS43 KDMX 201207
RWRIA

WEATHER ROUNDUP FOR IOWA
NATIONAL WEATHER SERVICE DES MOINES IA
700 AM CDT WED AUG 20 2014

NOTE: "FAIR" INDICATES FEW OR NO CLOUDS BELOW 12,000 FEET WITH NO
SIGNIFICANT WEATHER AND/OR OBSTRUCTIONS TO VISIBILITY.

* - THESE STATIONS ARE NOT NWS STATIONS...THUS NOT UNDER NWS
QUALITY CONTROL.  THEY ALSO DO NOT REPORT WEATHER SUCH
AS PRECIPITATION OR FOG.

IAZ001>003-012>014-020>022-031>034-043>046-201300-
   NORTHWEST IOWA

CITY           SKY/WX    TMP DP  RH WIND       PRES   REMARKS
CARROLL *      DRIZZLE   68  68 100 SE7       29.84F
CHEROKEE *     LGT RAIN  67  66  97 CALM      29.85F
DENISON *      LGT RAIN  70  68  94 N13G23    29.87R
LE MARS *      CLOUDY    68  66  94 VRB6G17   29.82R
ORANGE CITY *  LGT RAIN  70  64  83 E7        29.83F
SHELDON *      LGT RAIN  66  66 100 SE6       29.85F
SIOUX CITY     LGT RAIN  71  65  81 E10       29.78R
6HR MIN TEMP:  68; 6HR MAX TEMP:  71; 6HR PCP:  2.00;

SPENCER        TSTM      68  63  84 SW13G20   29.90R
6HR MIN TEMP:  61; 6HR MAX TEMP:  65;

STORM LAKE *   PTCLDY    66  66 100 W8        29.88R
$$

IAZ055>058-069>071-079>083-090>094-201300-
   SOUTHWEST IOWA

CITY           SKY/WX    TMP DP  RH WIND       PRES   REMARKS
ATLANTIC *     PTCLDY    70  64  83 SW5       29.81R
AUDUBON *      PTCLDY    70  68  94 NE6       29.86R
CLARINDA *     CLEAR     72  70  94 S6        29.82F
COUNCIL BLFS * CLEAR     72  70  94 SE6       29.79R
CRESTON *      CLEAR     68  66  94 SE9       29.82S
HARLAN  *      PTCLDY    68  68 100 N7        29.86R
LAMONI           N/A     71  66  84 SE7       29.85F
6HR MIN TEMP:  71; 6HR MAX TEMP:  74;

RED OAK *      CLOUDY    72  70  94 SW3       29.80S
SHENANDOAH *   CLEAR     72  70  94 S5        29.81S
$$

IAZ047>049-059>061-072>074-084-201300-
   CENTRAL IOWA

CITY           SKY/WX    TMP DP  RH WIND       PRES   REMARKS
AMES           CLOUDY    65  64  97 S3        29.85R FOG
6HR MIN TEMP:  62; 6HR MAX TEMP:  66;

ANKENY *       MOCLDY    68  68 100 SE6       29.85R
CHARITON *     CLOUDY    66  64  94 VRB5G15   29.85F
DES MOINES     TSTM      71  67  87 SE15G21   29.83R FOG
6HR MIN TEMP:  69; 6HR MAX TEMP:  74; 6HR PCP:  0.63;

GRINNELL*      CLOUDY    68  64  88 S6        29.88R
KNOXVILLE *    CLOUDY    68  66  94 CALM      29.86R
MARSHALLTOWN   CLOUDY    64  62  93 E6        29.84S
6HR MIN TEMP:  61; 6HR MAX TEMP:  66;

PELLA *        CLOUDY    67  66  94 SW6       29.89R
PERRY *        HVY RAIN  68  66  94 W6        29.91R
$$

IAZ004>006-015-016-023>025-035-036-201300-
   NORTH CENTRAL IOWA

CITY           SKY/WX    TMP DP  RH WIND       PRES   REMARKS
ALGONA *       PTCLDY    64  63  94 S6        29.87R
CLARION *      MOCLDY    64  64 100 CALM      29.87R
ESTHERVILLE    CLOUDY    61  61 100 S3        29.87R FOG
6HR MIN TEMP:  58; 6HR MAX TEMP:  64;

FORT DODGE *   CLOUDY    64  64 100 CALM      29.87R
MASON CITY     PTCLDY    61  61 100 CALM      29.87R FOG
6HR MIN TEMP:  59; 6HR MAX TEMP:  67;

FOREST CITY *  CLEAR     59  59 100 CALM      29.86R FOG
IOWA FALLS *   MOCLDY    63  60  91 CALM      29.87R
$$

IAZ007>011-017>019-026>030-037>042-050>054-066-201300-
   NORTHEAST IOWA

CITY           SKY/WX    TMP DP  RH WIND       PRES   REMARKS
CEDAR RAPIDS   MOCLDY    62  62 100 SW6       29.86R
6HR MIN TEMP:  59; 6HR MAX TEMP:  66;

CHARLES CITY * CLEAR     63  63 100 CALM      29.86R FOG
CLINTON *      CLEAR     61  59  94 CALM      29.88S
DECORAH *      CLEAR     61  59  94 CALM      29.85R FOG
DUBUQUE        CLEAR     60  59  96 SW5       29.86R
6HR MIN TEMP:  59; 6HR MAX TEMP:  64;

MONTICELLO *   CLEAR     59  59 100 CALM      29.85R
OELWEIN *      CLEAR     61  61 100 SW7       29.86R
WATERLOO       CLEAR     64  62  93 CALM      29.85R
6HR MIN TEMP:  61; 6HR MAX TEMP:  68;

$$

IAZ064-065-067-068-078-201300-
   EAST CENTRAL IOWA

CITY           SKY/WX    TMP DP  RH WIND       PRES   REMARKS
DAVENPORT      CLEAR     60  59  96 CALM      29.86S
6HR MIN TEMP:  59; 6HR MAX TEMP:  64;

IOWA CITY      MOCLDY    63  63 100 SW6       29.88R
6HR MIN TEMP:  59; 6HR MAX TEMP:  67;

MT. PLEASANT * CLOUDY    66  65  96 SE3       29.86R FOG
MUSCATINE *    PTCLDY    63  61  94 CALM      29.86R
QUAD CITIES    CLEAR     63  60  90 CALM      29.85S
6HR MIN TEMP:  60; 6HR MAX TEMP:  68;

$$

IAZ062-063-075>077-085>089-095>099-201300-
   SOUTHEAST IOWA

CITY           SKY/WX    TMP DP  RH WIND       PRES   REMARKS
BURLINGTON     CLOUDY    68  67  96 S3        29.86R
6HR MIN TEMP:  64; 6HR MAX TEMP:  68; 6HR PCP:  0.01;

FAIRFIELD *    MOCLDY    68  66  94 CALM      29.84R
FORT MADISON * MOCLDY    70  70 100 CALM      29.86R
KEOKUK *       MOCLDY    70  70 100 CALM      29.85R FOG
OSKALOOSA *    HVY RAIN  68  66  96 S14G24    29.88R
CENTERVILLE *  HVY RAIN  66  66 100 NW16G25   29.94R
OTTUMWA        TSTM      69  67  93 W9        29.92R VSB 1
6HR MIN TEMP:  64; 6HR MAX TEMP:  70; 6HR PCP: TRACE;

WASHINGTON *   LGT RAIN  66  66 100 E6        29.86R
$$

ABBREVIATIONS USED IN REMARKS
   TC - TEMPERATURES IN CELSIUS
  WCI - WIND CHILL INDEX
   HX - HEAT INDEX
  VSB - VISIBILITY
$$




USA.gov is the U.S. government's official web portal to all federal, state and local government web resources and services.